Location: Unspecified
(0.0000°N, 0.0000°E)
Time: 21:26:03
(UTC+00:00)

COSMOS 2498 - Visible Passes

Search period start: 27 May 2024 00:00
Search period end: 06 June 2024 00:00
Orbit: 1479 x 1509 km, 82.4° (Epoch: 26 May)

Date Brightness Start Highest point End Pass type
(mag) Time Alt. Az. Time Alt. Az. Time Alt. Az.
30 May ? 22:24:35 13° N 22:24:35 13° N 22:25:14 10° N visible
31 May ? 21:35:07 14° NNE 21:35:07 14° NNE 21:36:04 10° NNE visible
01 Jun ? 22:41:30 13° NNW 22:41:30 13° NNW 22:42:13 10° NNW visible
02 Jun ? 21:51:57 19° N 21:51:57 19° N 21:54:02 10° N visible
03 Jun ? 21:02:22 19° NNE 21:02:22 19° NNE 21:04:29 10° NNE visible
04 Jun ? 20:12:45 12° NE 20:12:45 12° NE 20:13:22 10° NE visible
04 Jun ? 22:08:37 21° NNW 22:08:37 21° NNW 22:11:20 10° NNW visible
05 Jun ? 21:18:56 30° N 21:18:56 30° N 21:22:44 10° N visible
